Location: Banska Bystrica
(48.7333°N, 19.1500°E)
Time: 10:36:04
(UTC+01:00)

ISS - Pass Details

Date: 29 January 2021
Orbit: 417 x 422 km, 51.6° (Epoch: 07 March)

Event Time Altitude Azimuth Distance (km) Brightness Sun altitude
Rises 19:38:56 0° 291° (WNW) 2,377 1.2 -30.0°
Reaches altitude 10° 19:41:02 10° 288° (WNW) 1,511 -0.1 -30.3°
Enters shadow 19:41:38 14° 287° (WNW) 1,273 -0.5 -30.4°
